Hourly Data Report for September 29, 2017

All times are specified in Local Standard Time (LST). Add 1 hour to adjust for Daylight Saving Time where and when it is observed.

FREDERICTON
NEW BRUNSWICK

45°52'08.000" N
66°32'14.000" W
20.70 m
8101505
71700
YFC

Download Data

Hourly Data (September 2017)
Hourly Data Report for September 29, 2017
Temp Definition
°C
Dew Point Temp Definition
°C
Rel Hum Definition
%
Wind Dir Definition
10's deg

Wind Spd Definition
km/h
Visibility Definition
km
Stn Press Definition
kPa
Hmdx Definition


Wind Chill Definition


Weather Definition


TIME
00:00 Legend Double Dagger 7.6 3.8 77 26 5 16.1 100.60     LegendNANA
01:00 Legend Double Dagger 7.2 3.4 77 26 8 16.1 100.64     LegendNANA
02:00 Legend Double Dagger 5.9 3.0 82 24 11 16.1 100.65     LegendNANA
03:00 Legend Double Dagger 5.2 2.9 85 24 9 16.1 100.66     LegendNANA
04:00 Legend Double Dagger 5.4 3.2 86 25 5 16.1 100.69     LegendNANA
05:00 Legend Double Dagger 5.6 3.2 84 26 11 16.1 100.69     LegendNANA
06:00 Legend Double Dagger 5.2 2.9 85 25 11 16.1 100.73     LegendNANA
07:00 Legend Double Dagger 5.4 2.9 84 25 9 16.1 100.80     LegendNANA
08:00 Legend Double Dagger 7.6 3.9 77 23 8 16.1 100.88     LegendNANA
09:00 Legend Double Dagger 9.9 3.1 63 31 13 16.1 100.93     LegendNANA
10:00 Legend Double Dagger 11.2 2.7 56 31 17 16.1 100.97     LegendNANA
11:00 Legend Double Dagger 12.4 2.5 51 33 22 16.1 100.97     LegendNANA
12:00 Legend Double Dagger 12.5 2.5 50 31 18 16.1 101.01     LegendNANA
13:00 Legend Double Dagger 13.4 2.4 47 33 21 16.1 101.04     LegendNANA
14:00 Legend Double Dagger 12.6 1.6 47 33 26 16.1 101.08     LegendNANA
15:00 Legend Double Dagger 12.0 1.8 49 33 21 16.1 101.13     LegendNANA
16:00 Legend Double Dagger 11.8 1.6 50 33 22 16.1 101.19     LegendNANA
17:00 Legend Double Dagger 11.0 1.6 52 32 13 16.1 101.26     LegendNANA
18:00 Legend Double Dagger 10.4 2.1 56 32 9 16.1 101.34     LegendNANA
19:00 Legend Double Dagger 10.1 2.3 58 32 15 16.1 101.43     LegendNANA
20:00 Legend Double Dagger 9.3 2.6 63 33 11 16.1 101.50     LegendNANA
21:00 Legend Double Dagger 8.6 2.5 65 33 11 16.1 101.57     LegendNANA
22:00 Legend Double Dagger 8.3 2.4 66 33 13 16.1 101.61     LegendNANA
23:00 Legend Double Dagger 7.1 1.6 68 33 15 16.1 101.66     LegendNANA

Notes on Data Quality.

Legend

  • E = Estimated
  • M = Missing
  • NA = Not Available
  • ‡ = Partner data that is not subject to review by the National Climate Archives
Date modified: